Regional Weather Roundup
Issued by NWS

Home | Current Version | Previous Version | Text Only | Print | Product List | Glossary On
Versions: 1 2 3 4 5 6 7 8 9 10 11 12 13 14 15 16 17 18 19 20 21 22 23 24 25 26 27 28 29 30 31 32 33 34 35 36 37 38 39 40 41 42 43 44 45 46 47 48 49 50
000
ASUS44 KJAN 301910
RWRMS

MISSISSIPPI HOURLY WEATHER ROUNDUP
NATIONAL WEATHER SERVICE JACKSON MS
200 PM CDT MON MAY 30 2016

NOTE: "FAIR: INDICATES FEW OR NO CLOUDS BELOW 12,000 FEET WITH NO
SIGNIFICANT WEATHER AND/OR OBSTRUCTIONS TO VISIBILITY.

MSZ001>002-007>008-010>013-018>021-025>028-034>036-302000-
NORTHWEST MISSISSIPPI

CITY           SKY/WX    TMP DP  RH WIND       PRES   REMARKS
BATESVILLE     FAIR      88  61  39 CALM      30.02F
CLARKSDALE     MOSUNNY   88  70  55 CALM      30.02F HX  92
CLEVELAND      MOCLDY    87  67  51 CALM      30.01F HX  90
GREENWOOD      MOSUNNY   90  62  39 W3        30.00F HX  90
GREENVILLE     PTSUNNY   89  65  44 VRB5      30.00F HX  91
OLIVE BRANCH   PTSUNNY   88  64  45 E7        30.03S
OXFORD         FAIR      86  59  39 N3        30.03F
TUNICA         CLEAR     86  63  45 CALM      30.02F
WINONA         FAIR      89  63  42 CALM      30.01F
$$

MSZ003>006-009-014>017-022>024-029>033-037>039-302000-
NORTHEAST MISSISSIPPI

CITY           SKY/WX    TMP DP  RH WIND       PRES   REMARKS
COLUMBUS AFB   MOSUNNY   91  62  37 VRB6      29.99F HX  91
CORINTH        FAIR      88  57  35 CALM      30.01F
GOLDN TRIANGLE PTSUNNY   93  63  36 NE7       30.00F HX  94
STARKVILLE     FAIR      90  61  37 N3        29.99F
TUPELO         PTSUNNY   89  61  38 E6        30.00F
$$

MSZ040-058-302000-
CENTRAL MISSISSIPPI

CITY           SKY/WX    TMP DP  RH WIND       PRES   REMARKS
JACKSON INTL   MOSUNNY   92  60  34 N6        30.00F HX  91
JACKSON HAWKNS PTSUNNY   90  64  42 E6        30.01F HX  91
MADISON        FAIR      88  64  45 NE5       30.01S
MERIDIAN KEY   MOSUNNY   94  61  33 E5        30.00F HX  94
MERIDIAN NAS   PTSUNNY   91  62  37 NE6       30.00F HX  91
VICKSBURG TVR  SUNNY     92  65  40 VRB5      30.00F HX  94
VICKSBURG VKS  MOCLDY    88  68  51 N5        30.00F HX  91
$$

MSZ059>079-302000-
SOUTH MISSISSIPPI

CITY           SKY/WX    TMP DP  RH WIND       PRES   REMARKS
BROOKHAVEN     FAIR     N/A N/A N/A W3        30.02F
COLUMBIA       MOCLDY    88  68  51 E5        30.03F HX  91
HATTIESBURG    SUNNY     93  64  38 N5        29.99F HX  94
MCCOMB         PTSUNNY   91  63  39 CALM      30.00F HX  92
NATCHEZ        PTSUNNY   88  70  55 CALM      30.00F HX  92
PINE BELT      SUNNY     91  63  38 E5        30.02F HX  92
$$

MSZ080>082-302000-
COASTAL MISSISSIPPI

CITY           SKY/WX    TMP DP  RH WIND       PRES   REMARKS
BAY ST LOUIS   MOSUNNY   84  66  54 SW8       30.00S
BILOXI         SUNNY     91  68  47 S10       29.98F HX  94
PASCAGOULA     PTSUNNY   88  72  58 VRB6      29.98F HX  94
GULFPORT       SUNNY     91  66  43 SE8       29.98F HX  93
$$



USA.gov is the U.S. government's official web portal to all federal, state and local government web resources and services.